SCP
0 0 0 0 0 0 0 0 0 0 0 0 0 0 0 0 0 0 0 0 0 0 0 0 0 0 0 0 0 0 0 0 0 0 0 0 0 0 0 0 0 0 0
0 0 0 0 0 0 0 0 0 0 0 0 0 0 0 0 0 0 0 0 0 0 0 0 0 0 0 0 0 0 0 0 0 0 0 0 0 0 0 0 0 0 0
0 0 0 0 0 0 0 0 0 0 0 0 0 0 0 0 0 0 0 0 0 0 0 0 0 0 0 0 0 0 0 0 0 0 0 0 0 0 0 0 0 0 0
0 0 0 0 0 0 0 0 0 0 0 0 0 0 0 0 0 0 0 0 0 0 0 0 0 0 0 0 0 0 0 0 0 0 0 0 0 0 0 0 0 0 0
0 0 0 0 0 0 0 0 0 0 0 0 0 0 0 0 0 0 0 0 0 0 0 0 0 0 0 0 0 0 0 0 0 0 0 0 0 0 0 0 0 0 0
0 0 0 0 0 0 0 0 0 0 0 0 0 0 0 0 0 0 0 0 0 0 0 0 0 0 0 0 0 0 0 0 0 0 0 0 0 0 0 0 0 0 0
0 0 0 0 0 0 0 0 0 0 0 0 0 0 0 0 0 0 0 0 0 0 0 0 0 0 0 0 0 0 0 0 0 0 0 0 0 0 0 0 0 0 0
0 0 0 0 0 0 0 0 0 0 0 0 0 0 0 0 0 0 0 0 0 0 0 0 0 0 0 0 0 0 0 0 0 0 0 0 0 0 0 0 0 0 0
0 0 0 0 0 0 0 0 0 0 0 0 0 0 0 0 0 0 0 0 0 0 0 0 0 0 0 0 0 0 0 0 0 0 0 0 0 0 0 0 0 0 0
0 0 0 0 0 0 0 0 0 0 0 0 0 0 0 0 0 0 0 0 0 0 0 0 0 0 0 0 0 0 0 0 0 0 0 0 0 0 0 0 0 0 0
0 0 0 0 0 0 0 0 0 0 0 0 0 0 0 0 0 0 0 0 0 0 0 0 0 0 0 0 0 0 0 0 0 0 0 0 0 0 0 0 0 0 0
0 0 0 0 0 0 0 0 0 0 0 0 0 0 0 0 0 0 0 0 0 0 0 0 0 0 0 0 0 0 0 0 0 0 0 0 0 0 0 0 0 0 0
0 0 0 0 0 0 0 0 0 0 0 0 0 0 0 0 0 0 0 0 0 0 0 0 0 0 0 0 0 0 0 0 0 0 0 0 0 0 0 0 0 0 0
0 0 0 0 0 0 0 0 0 0 0 0 0 0 0 0 0 0 0 0 0 0 0 0 0 0 0 0 0 0 0 0 0 0 0 0 0 0 0 0 0 0 0
0 0 0 0 0 0 0 0 0 0 0 0 0 0 0 0 0 0 0 0 0 0 0 0 0 0 0 0 0 0 0 0 0 0 0 0 0 0 0 0 0 0 0
0 0 0 0 0 0 0 0 0 0 0 0 0 0 0 0 0 0 0 0 0 0 0 0 0 0 0 0 0 0 0 0 0 0 0 0 0 0 0 0 0 0 0
0 0 0 0 0 0 0 0 0 0 0 0 0 0 0 0 0 0 0 0 0 0 0 0 0 0 0 0 0 0 0 0 0 0 0 0 0 0 0 0 0 0 0
0 0 0 0 0 0 0 0 0 0 0 0 0 0 0 0 0 0 0 0 0 0 0 0 0 0 0 0 0 0 0 0 0 0 0 0 0 0 0 0 0 0 0
0 0 0 0 0 0 0 0 0 0 0 0 0 0 0 0 0 0 0 0 0 0 0 0 0 0 0 0 0 0 0 0 0 0 0 0 0 0 0 0 0 0 0
0 0 0 0 0 0 0 0 0 0 0 0 0 0 0 0 0 0 0 0 0 0 0 0 0 0 0 0 0 0 0 0 0 0 0 0 0 0 0 0 0 0 0
0 0 0 0 0 0 0 0 0 0 0 0 0 0 0 0 0 0 0 0 0 0 0 0 0 0 0 0 0 0 0 0 0 0 0 0 0 0 0 0 0 0 0
0 0 0 0 0 0 0 0 0 0 0 0 0 0 0 0 0 0 0 0 0 0 0 0 0 0 0 0 0 0 0 0 0 0 0 0 0 0 0 0 0 0 0
0 0 0 0 0 0 0 0 0 0 0 0 0 0 0 0 0 0 0 0 0 0 0 0 0 0 0 0 0 0 0 0 0 0 0 0 0 0 0 0 0 0 0
0 0 0 0 0 0 0 0 0 0 0 0 0 0 0 0 0 0 0 0 0 0 0 0 0 0 0 0 0 0 0 0 0 0 0 0 0 0 0 0 0 0 0
0 0 0 0 0 0 0 0 0 0 0 0 0 0 0 0 0 0 0 0 0 0 0 0 0 0 0 0 0 0 0 0 0 0 0 0 0 0 0 0 0 0 0
0 0 0 0 -0 0 0 0 0 0 0 0 0 0 0 0 0 0 0 0 0 0 0 0 0 0 0 0 0 0 0 0 0 0 0 0 0 0 0 0 0 0 0
Wind_Speed
3 3 2 2 2 2 2 2 2 2 3 3 3 4 4 4 4 4 3 8 9 9 11 11 11 12 12 12 11 11 11 12 12 12 11 11 11 12 12 12 12 12 12
3 3 3 2 3 3 3 3 3 3 2 2 3 4 4 4 4 4 4 5 8 8 9 10 11 11 12 11 11 12 12 12 11 11 12 11 11 11 11 12 12 12 12
3 3 3 3 3 2 3 2 2 2 2 2 3 4 3 4 4 4 4 3 4 6 8 9 10 10 11 12 11 12 12 12 12 12 12 12 12 11 12 11 11 12 12
4 3 3 3 2 2 2 2 2 2 2 2 2 3 3 3 4 4 3 3 3 3 5 8 9 10 11 11 11 12 12 12 12 12 12 12 11 11 11 11 11 11 12
4 3 3 2 2 2 2 2 1 2 2 2 3 3 2 3 3 3 3 4 3 3 3 5 8 9 9 10 11 12 12 12 12 12 12 12 12 12 11 11 11 11 11
4 3 2 2 2 2 2 1 2 2 2 2 2 2 2 3 2 3 3 3 2 3 3 3 3 5 8 9 9 10 11 11 11 11 12 12 12 11 11 12 11 11 11
3 3 2 2 2 2 2 2 1 2 1 1 0 1 2 2 2 2 2 2 2 2 2 2 2 2 3 6 7 8 10 11 11 11 12 11 11 11 11 12 12 11 11
3 3 3 2 2 1 1 1 1 1 1 1 1 0 2 2 2 2 2 2 2 2 2 2 2 2 3 2 4 7 8 8 10 11 11 11 10 11 11 11 11 11 11
2 1 3 2 1 1 2 2 2 2 1 1 1 2 2 2 2 2 2 2 2 2 2 2 3 3 3 3 4 5 6 7 8 9 9 9 9 10 10 11 11 11 11
2 2 2 2 1 1 1 2 2 2 2 2 1 1 2 2 1 2 2 2 2 3 3 3 3 3 3 3 4 6 6 5 6 6 7 8 8 8 9 10 10 11 11
2 2 2 2 1 1 1 1 1 2 2 2 2 1 1 1 2 2 3 2 2 3 3 4 3 3 3 3 3 4 5 5 4 4 5 5 6 6 7 8 8 9 10
1 1 2 1 1 1 1 1 1 2 2 2 2 2 2 2 2 2 3 3 3 3 3 3 3 3 2 2 4 4 5 5 4 4 4 4 5 5 6 7 7 8 8
0 0 0 1 1 1 1 1 1 1 2 2 2 2 2 2 2 2 2 2 3 3 2 2 2 2 2 2 3 4 4 5 5 4 4 4 4 5 5 6 6 7 7
1 1 1 1 1 1 1 1 1 1 1 2 2 2 2 2 2 3 3 2 2 2 2 3 2 2 2 2 3 3 3 4 4 4 3 3 3 4 4 5 5 5 4
1 1 1 1 1 1 1 1 1 1 1 2 2 2 2 2 2 3 3 3 3 3 3 3 2 2 2 2 3 2 2 3 4 4 3 3 3 4 4 4 4 4 4
1 1 1 1 1 1 0 0 1 1 1 2 1 1 2 2 2 2 2 3 3 3 3 2 2 2 3 2 2 2 2 3 4 4 3 3 3 4 4 5 5 5 5
1 1 1 1 1 1 1 1 1 1 1 2 1 1 2 2 2 2 2 2 2 3 3 3 2 1 2 2 1 1 1 1 1 3 3 3 4 4 4 5 5 5 6
1 1 1 1 0 0 1 0 1 1 1 2 1 1 2 2 2 2 2 2 2 2 3 3 2 1 2 2 1 1 1 1 1 1 3 3 3 3 4 4 5 6 6
1 1 1 1 0 0 1 0 1 1 1 1 1 1 2 2 3 2 2 2 2 2 2 2 2 1 1 1 1 1 1 1 1 1 2 3 3 3 4 5 5 5 6
1 1 1 0 0 0 0 0 0 0 1 1 1 1 2 2 2 3 2 2 2 2 2 2 2 2 1 1 1 1 1 1 1 1 1 1 2 3 4 4 5 6 6
1 1 1 1 1 0 0 0 0 0 1 1 2 2 2 2 3 2 2 2 2 2 2 1 2 1 1 1 1 1 1 1 1 1 1 2 2 2 3 4 5 6 7
1 0 0 0 1 1 2 1 0 0 0 1 2 2 2 2 3 3 3 2 2 2 2 2 2 2 3 2 1 1 1 1 2 1 1 2 2 3 3 3 5 7 7
0 1 1 0 1 2 2 2 2 1 1 1 1 2 2 2 3 3 2 2 2 2 3 3 3 3 3 3 2 2 2 2 3 1 1 2 2 3 3 4 7 8 8
0 0 1 1 1 2 3 3 2 0 1 1 2 2 2 2 3 3 2 2 2 2 2 1 2 3 3 3 3 3 3 2 2 2 3 3 2 3 3 3 6 8 9
1 1 1 1 1 2 2 2 2 0 1 2 2 2 1 2 3 2 2 2 3 3 2 1 2 3 3 4 3 2 2 2 2 2 3 2 2 2 2 3 4 7 8
1 1 2 1 1 2 3 2 1 0 1 2 2 2 2 2 3 2 1 1 2 3 3 3 3 3 2 3 4 4 3 3 2 3 3 3 2 1 2 2 2 3 4
Wind_Direction
215 225 234 225 222 215 210 214 222 228 235 235 238 241 244 243 242 242 255 257 254 252 247 242 233 228 224 221 221 218 217 218 218 215 215 218 220 219 217 217 216 214 213
210 212 219 221 222 219 210 207 216 223 235 239 249 247 246 248 248 245 245 259 259 258 253 249 242 236 231 226 224 224 223 220 220 220 218 217 220 221 221 221 220 217 215
209 207 206 217 223 216 209 201 209 210 228 234 246 250 249 249 254 252 249 250 260 264 258 253 247 242 237 231 229 230 228 224 223 223 224 221 220 221 222 221 222 220 217
202 202 202 214 215 195 197 195 194 204 220 229 246 256 256 256 255 253 252 252 253 260 259 254 249 243 240 237 235 232 229 226 225 223 223 225 225 223 221 222 223 222 220
202 194 199 204 190 184 190 204 192 198 218 233 245 251 259 260 259 261 261 257 251 251 254 255 251 245 243 241 237 235 231 226 223 223 223 225 226 227 225 224 225 224 222
202 192 194 197 178 175 184 188 203 196 206 222 255 272 275 270 264 260 265 270 267 260 253 255 254 251 246 242 235 235 236 232 229 227 226 225 224 225 226 224 223 222 221
195 183 187 184 179 185 192 181 192 197 201 163 143 308 306 290 278 270 275 274 281 281 274 265 253 250 254 248 242 240 241 238 234 231 228 225 225 224 224 226 224 221 220
193 178 162 170 174 167 164 171 159 164 203 156 154 137 313 322 319 301 295 272 283 294 294 287 272 257 248 244 248 249 247 240 237 234 229 226 224 224 223 222 223 221 221
163 139 141 147 145 155 189 198 189 178 206 200 179 167 185 240 295 299 285 284 293 289 294 291 274 266 253 241 245 249 247 240 240 237 230 228 225 225 226 222 220 218 218
137 120 120 109 111 164 187 201 186 183 182 208 216 203 207 197 210 287 298 290 294 285 284 286 277 266 258 246 239 238 236 232 237 236 233 226 222 221 222 224 221 217 215
124 124 126 113 143 195 232 218 194 188 196 203 195 189 201 219 216 220 271 293 298 277 274 273 265 263 258 249 243 236 228 221 221 223 223 223 219 217 218 217 217 217 217
108 108 113 128 176 186 234 244 229 211 213 209 201 191 194 206 210 217 244 273 284 278 277 271 257 261 261 248 244 234 218 210 208 205 213 219 217 219 222 224 224 221 220
129 270 100 205 211 218 225 220 220 257 225 215 215 213 215 227 220 217 243 264 275 282 278 270 252 257 260 252 250 233 213 200 195 197 206 214 220 223 225 227 229 225 222
198 198 228 248 246 241 233 205 190 247 251 237 234 225 229 235 222 214 217 225 268 274 261 262 267 254 263 255 248 232 220 203 199 198 205 213 218 219 222 222 222 218 212
190 170 206 237 261 256 238 198 212 243 253 249 247 244 247 253 241 229 224 218 223 257 267 254 255 279 282 262 241 226 215 202 201 201 205 215 218 213 213 212 207 200 199
183 188 197 221 245 264 258 208 239 265 267 271 257 257 264 269 266 242 228 227 226 232 256 258 245 283 297 291 254 231 217 201 205 203 206 215 217 219 215 208 202 198 197
206 198 201 211 236 262 276 249 257 266 274 290 296 271 288 290 283 274 244 227 227 223 248 271 259 279 287 288 290 263 227 219 213 211 216 217 218 219 216 213 212 208 207
193 179 173 174 218 304 319 290 287 291 275 281 300 307 304 304 298 287 270 256 245 230 228 257 269 266 268 277 273 243 236 236 240 224 219 215 218 221 221 221 221 217 213
148 125 120 134 219 322 318 285 254 289 290 278 283 294 301 305 297 289 277 273 264 250 223 228 256 255 265 287 306 288 255 268 245 217 207 211 216 221 222 220 219 213 206
102 74 84 134 76 341 318 322 342 346 319 305 295 282 286 294 283 280 275 273 264 254 236 228 251 262 253 257 237 261 269 246 239 229 237 230 223 228 226 219 218 212 207
78 94 80 22 26 13 296 337 321 345 355 342 335 323 302 311 310 296 276 265 254 249 248 243 251 259 244 221 231 240 247 263 263 227 240 245 233 233 230 226 222 215 211
48 75 98 346 331 321 314 314 266 235 316 338 330 329 325 334 331 318 300 267 249 237 237 234 237 242 248 235 223 216 230 245 264 211 213 253 224 238 239 231 223 215 214
49 339 325 311 308 311 327 331 327 213 250 270 281 307 330 340 338 335 341 333 325 302 247 231 236 242 243 231 213 219 219 225 243 237 214 257 234 245 245 235 219 216 215
27 312 309 331 323 310 334 340 337 266 264 278 278 279 294 320 336 348 351 354 350 344 315 259 249 260 258 246 228 227 227 240 257 242 210 245 244 250 260 243 221 217 216
348 320 295 311 315 307 323 346 356 277 303 317 309 297 288 303 320 348 1 354 344 335 338 316 267 267 259 244 224 202 198 210 251 244 200 223 246 256 259 252 230 218 216
274 315 318 307 284 286 300 321 345 172 288 312 322 312 293 298 310 326 324 313 311 310 324 332 329 313 281 244 218 214 206 210 229 245 202 200 218 231 266 248 236 221 217